Other Public Products
Issued by NWS Charleston, SC

Home | Current Version | Previous Version | Text Only | Print | Product List | Glossary On
Versions: 1 2 3 4 5 6 7 8 9 10 11 12 13 14 15 16 17 18 19 20 21 22 23 24 25 26 27 28 29 30 31 32 33 34 35 36 37 38 39 40 41 42 43 44 45 46 47 48 49 50
514
FPUS82 KCHS 161226
OPUCHS

TEST...KCHS/KSAV Gateway Observations...TEST
National Weather Service Charleston SC
700 AM EST SAT DEC 16 2017

NOTE: "fair" indicates few or no clouds below 12,000 feet with no
significant weather and/or obstructions to visibility.

SCZ050-WAZ558-NCZ071-TXZ119-213-PAZ071-DCZ001-FLZ074-172-MI076-
NYZ176-178-MAZ016-IL014-TNZ027-NJZ106-GAZ044-MD014-161300-

...Gateway Observations for Charleston International...

CITY           SKY/WX    TMP DP  RH WIND       PRES   REMARKS
Chas Airport   CLEAR     35  28  75 NW5       30.27R WCI  31
6HR MIN TEMP:  34; 6HR MAX TEMP:  46;

Seattle        MOCLDY    39  38  96 SE5       30.29S WCI  36
6HR MIN TEMP:  39; 6HR MAX TEMP:  42;

Charlotte      PTCLDY    28  24  85 CALM      30.23R
6HR MIN TEMP:  23; 6HR MAX TEMP:  31;

Dallas DFW     CLOUDY    41  28  60 S9        30.11S
6HR MIN TEMP:  38; 6HR MAX TEMP:  43;

Dallas Love    CLOUDY    42  28  57 SE6       30.14S
6HR MIN TEMP:  39; 6HR MAX TEMP:  44;

Philladelphia  PTCLDY    25  19  78 SW12      30.10R WCI  14
6HR MIN TEMP:  21; 6HR MAX TEMP:  26;

Wash National  PTCLDY    29  22  75 SW6       30.15S WCI  23
6HR MIN TEMP:  26; 6HR MAX TEMP:  30;

Baltimore      PTCLDY    26  21  81 S6        30.12R WCI  19
6HR MIN TEMP:  20; 6HR MAX TEMP:  26;

Miami          MOCLDY    64  58  80 VRB3      30.18R
6HR MIN TEMP:  61; 6HR MAX TEMP:  67;

Detroit        FLURRIES  34  25  69 SW14      29.91R WCI  25
6HR MIN TEMP:  29; 6HR MAX TEMP:  35; 6HR PCP:  0.02;

Newark         PTCLDY    22  16  78 SW12      30.03R WCI  10
6HR MIN TEMP:  17; 6HR MAX TEMP:  23;

Laguardia      PTCLDY    29  16  58 SW13      30.01R WCI  19
6HR MIN TEMP:  26; 6HR MAX TEMP:  29;

J F K          MOCLDY    27  18  69 W18       30.04R WCI  14
6HR MIN TEMP:  24; 6HR MAX TEMP:  27;

Boston Logan   PTCLDY    23  16  74 W9        29.88R WCI  13
6HR MIN TEMP:  23; 6HR MAX TEMP:  24;

Ft. Lauderdale PTCLDY    59  59 100 N5        30.17R
6HR MIN TEMP:  59; 6HR MAX TEMP:  64;

Chicago O`Hare MOCLDY    36  24  62 SW9       29.83R WCI  29
6HR MIN TEMP:  36; 6HR MAX TEMP:  38;

Chicago Midway CLOUDY    37  25  61 SW12      29.85R WCI  29
6HR MIN TEMP:  37; 6HR MAX TEMP:  38;

Houston Bush   CLOUDY    47  43  86 N3        30.22R
6HR MIN TEMP:  38; 6HR MAX TEMP:  47;

Houston Hobby  MOCLDY    49  42  77 CALM      30.22R
6HR MIN TEMP:  41; 6HR MAX TEMP:  49;

Nashville      CLOUDY    29  23  78 S3        30.22R
6HR MIN TEMP:  27; 6HR MAX TEMP:  31;

Atlanta        CLOUDY    27  23  85 W6        30.24R WCI  20
6HR MIN TEMP:  27; 6HR MAX TEMP:  29;


$$

GAZ044-118-TXZ119-213-NCZ071-DCZ001-MDZ014-506-PAZ021-071-NJZ106-
NYZ176-178-MAZ106-OHZ011-021-055-MIZ076-KYZ091-ILZ014-INZ047-
MNZ060-ONZ431-161300-

...Gateway Observations for Savannah International...

CITY           SKY/WX    TMP DP  RH WIND       PRES   REMARKS
Savannah Arpt  CLOUDY    36  26  67 NW6       30.28R WCI  31
6HR MIN TEMP:  36; 6HR MAX TEMP:  48;

Atlanta        CLOUDY    27  23  85 W6        30.24R WCI  20
6HR MIN TEMP:  27; 6HR MAX TEMP:  29;

Charlotte      PTCLDY    28  24  85 CALM      30.23R
6HR MIN TEMP:  23; 6HR MAX TEMP:  31;

Dallas DFW     CLOUDY    41  28  60 S9        30.11S
6HR MIN TEMP:  38; 6HR MAX TEMP:  43;

Houston Bush   CLOUDY    47  43  86 N3        30.22R
6HR MIN TEMP:  38; 6HR MAX TEMP:  47;

Wash National  PTCLDY    29  22  75 SW6       30.15S WCI  23
6HR MIN TEMP:  26; 6HR MAX TEMP:  30;

Wash Dulles    MOCLDY    24  20  84 S8        30.12S WCI  15
6HR MIN TEMP:  23; 6HR MAX TEMP:  31;

Baltimore      PTCLDY    26  21  81 S6        30.12R WCI  19
6HR MIN TEMP:  20; 6HR MAX TEMP:  26;

Philadelphia   PTCLDY    25  19  78 SW12      30.10R WCI  14
6HR MIN TEMP:  21; 6HR MAX TEMP:  26;

Newark         PTCLDY    22  16  78 SW12      30.03R WCI  10
6HR MIN TEMP:  17; 6HR MAX TEMP:  23;

Laguardia      PTCLDY    29  16  58 SW13      30.01R WCI  19
6HR MIN TEMP:  26; 6HR MAX TEMP:  29;

J F K          MOCLDY    27  18  69 W18       30.04R WCI  14
6HR MIN TEMP:  24; 6HR MAX TEMP:  27;

Boston         PTCLDY    23  16  74 W9        29.88R WCI  13
6HR MIN TEMP:  23; 6HR MAX TEMP:  24;

Pittsburg      LGT SNOW  30  24  78 SW13      30.01S WCI  20
6HR MIN TEMP:  29; 6HR MAX TEMP:  31; 6HR PCP: TRACE;

Akron          FLURRIES  30  23  75 SW14      29.98R WCI  19
6HR MIN TEMP:  27; 6HR MAX TEMP:  30; 6HR PCP:  0.02;

Cleveland      CLOUDY    34  25  69 SW14      29.99R WCI  25
6HR MIN TEMP:  30; 6HR MAX TEMP:  34; 6HR PCP:  0.01;

Cincinnati     PTCLDY    32  25  75 SW9       30.07S WCI  24
6HR MIN TEMP:  30; 6HR MAX TEMP:  34;

Columbus       CLOUDY    33  25  72 SW10G17   30.05S WCI  24
Detroit        FLURRIES  34  25  69 SW14      29.91R WCI  25
6HR MIN TEMP:  29; 6HR MAX TEMP:  35; 6HR PCP:  0.02;

Chicago O`Hare MOCLDY    36  24  62 SW9       29.83R WCI  29
6HR MIN TEMP:  36; 6HR MAX TEMP:  38;

Minneapolis    CLOUDY    27  25  92 E7        29.71R WCI  19
6HR MIN TEMP:  27; 6HR MAX TEMP:  31;

Indianapolis   CLOUDY    30  24  78 S9        30.00F WCI  22
6HR MIN TEMP:  30; 6HR MAX TEMP:  34;

Toronto Canada MOCLDY    23  16  74 SW13      29.88R WCI  11

$$




USA.gov is the U.S. government's official web portal to all federal, state and local government web resources and services.